Погода в Коряжме

Россия / Архангельская область     61°18′55″N   47°09′35″E
темп.,
°C
ветер,
м/с
пор.,
м/с
влажн.,
%
обл.,
%
осадки,
мм/ч
давл.,
гПа
погр.,
м
29 июня, ср
ср2900:00+6сз26715 0.0 1023104
03:00+5ссз26775 0.0 1024119
06:00+11с36592 0.0 1023332
09:00+15ссз454134 0.0 10221136
12:00+18ссз4532100 0.0 10211472
15:00+19сз4531100 0.0 10191525
18:00+18сз474224 0.0 10171246
21:00+12зсз366515 0.0 1016102
30 июня, чт
чт3000:00+11зсз296099 0.0 1015201
03:00+8ссз247074 0.0 101568
06:00+12св47590 0.0 1016573
09:00+14ссв574289 0.0 10161521
12:00+16св583728 0.0 10172011
15:00+17св583535 0.0 10172265
18:00+17св374237 0.0 10172137
21:00+10в22653 0.0 101919
1 июля, пт
пт100:00+7вюв00705 0.0 102010
03:00+7сз1169100 0.0 102112
06:00+12сз23574 0.0 1021217
09:00+17ссз233948 0.0 10201124
12:00+20сз2333100 0.0 10191670
15:00+22зсз35325 0.0 10181991
18:00+22зсз364488 0.0 1016422
21:00+16ссз2363100 0.0 101670
2 июля, сб
сб200:00+13сз227177 0.0 101535
03:00+11ссз259159 0.0 1015107
06:00+14с3882100 0.0 1015674
09:00+15ссв4665100 0.1 10161135
12:00+17с3560100 0.0 10161361
15:00+19ссв465294 0.0 10161559
18:00+18всв356590 0.0 1016806
21:00+13св118762 0.0 101610
3 июля, вс
вс300:00+11зсз229472 0.0 101621
03:00+10зсз26974 0.0 1015119
06:00+15ссз256899 0.0 1014273
09:00+20с46450 0.0 10131350
12:00+22с463549 0.0 10122092
15:00+23с573313 0.0 10122335
18:00+21ссв47400 0.0 10121241
21:00+13всв22636 0.0 101315